Flag for China Weather past 2 weeks in Guangzhou, Guangdong, China

Now
77 °F

Thunderstorms. Fog.


Feels Like: 78 °F
Forecast: 78 / 89 °F
Wind: 3 mph from East

Location: Canton Airport

Current Time: May 25, 2015 at 7:31:10 PM

Latest Report: May 25, 2015 at 6:30 PM


Visibility: 3 mi

Pressure: 29.71 "Hg

Humidity: 100%

Dew point: 77 °F

Location of GuangzhouLocation

Historic Weather in Guangzhou — Graph

°F

Guangzhou temperature yesterday

Maximum temperature yesterday: 81 °F (at 2:30 PM)
Minimum temperature yesterday: 75 °F (at 12:00 AM)
Average temperature yesterday: 77 °F

Past Weeks' High & Low Weather Summary

 TemperatureHumidityPressure
High93 °F (May 14, 1:30 PM)100% (May 11, 3:00 PM)29.98 "Hg (May 11, 3:00 PM)
Low68 °F (May 12, 5:30 AM)40% (May 12, 4:00 PM)29.62 "Hg (May 19, 2:30 PM)
Average79 °F87%29.77 "Hg
* Reported May 10 6:00 PM — May 25 6:30 PM, Guangzhou, Weather by CustomWeather, © 2015

Note: Actual official high and low records may vary slightly from our data, if they occured in-between our weather recording intervals... More about our weather records

Advertising

Guangzhou weather history for previous 24 hours

 ConditionsComfort  
Time TempWeatherWind HumidityBarometerVisibility
6:30 PM
Mon, May 25
77 °FThunderstorms. Fog.3 mph100%29.71 "Hg3 mi
6:00 PM77 °FThunderstorms. Fog.3 mph100%29.71 "Hg3 mi
5:30 PM77 °FStrong thunderstorms. Broken clouds.10 mph100%29.71 "Hg1 mi
5:00 PM86 °FThunderstorms. Fog.10 mph79%29.68 "Hg2 mi
4:30 PM88 °FFog.8 mph79%29.62 "Hg2 mi
4:00 PM86 °FFog.6 mph79%29.65 "Hg2 mi
3:30 PM90 °FScattered clouds.3 mph75%29.62 "Hg2 mi
3:00 PM90 °FScattered clouds.3 mph75%29.62 "Hg1 mi
2:30 PM90 °FScattered clouds.3 mph71%29.65 "Hg1 mi
2:00 PM90 °FFog.6 mph75%29.65 "Hg2 mi
1:30 PM88 °FFog.3 mph79%29.68 "Hg2 mi
1:00 PM84 °FSprinkles. Fog.3 mph89%29.68 "Hg1 mi
12:30 PM86 °FFog.8 mph79%29.71 "Hg1 mi
12:00 PM86 °FFog.3 mph84%29.71 "Hg2 mi
11:30 AM86 °FFog.1 mph79%29.71 "Hg2 mi
11:00 AM84 °FFog.1 mph84%29.71 "Hg2 mi
10:30 AM86 °FFog.1 mph79%29.74 "Hg2 mi
10:00 AM84 °FFog.3 mph84%29.74 "Hg2 mi
9:30 AM82 °FFog.3 mph89%29.74 "Hg2 mi
9:00 AM81 °FFog.1 mph94%29.74 "Hg2 mi
8:30 AM79 °FFog.1 mph94%29.74 "Hg2 mi
8:00 AM79 °FFog.1 mph94%29.74 "Hg2 mi
7:30 AM77 °FFog.No wind100%29.71 "Hg1 mi
7:00 AM77 °FFog.No wind100%29.71 "Hg1 mi
6:30 AM77 °FFog.No wind100%29.71 "Hg1 mi
6:00 AM77 °FFog.No wind100%29.68 "Hg1 mi
5:30 AM77 °FFog.No wind100%29.68 "Hg1 mi
5:00 AM77 °FFog.No wind100%29.68 "Hg2 mi
4:30 AM77 °FFog.No wind100%29.68 "Hg1 mi
4:00 AM77 °FFog.No wind100%29.68 "Hg1 mi
3:30 AM77 °FFog.No wind100%29.68 "Hg1 mi
3:00 AM77 °FFog.No wind100%29.68 "Hg1 mi
2:30 AM77 °FFog.No wind100%29.68 "Hg1 mi
2:00 AM77 °FFog.No wind100%29.68 "Hg1 mi
1:30 AM77 °FFog.3 mph100%29.68 "Hg1 mi
1:00 AM77 °FFog.3 mph100%29.71 "Hg2 mi
12:30 AM79 °FFog.1 mph94%29.71 "Hg2 mi
12:00 AM79 °FFog.No wind94%29.71 "Hg2 mi
11:30 PM
Sun, May 24
79 °FLight rain. Fog.No wind100%29.74 "Hg2 mi
11:00 PM79 °FLight rain. Fog.No wind100%29.74 "Hg2 mi
10:30 PM79 °FLight rain. Fog.No wind100%29.74 "Hg2 mi
10:00 PM79 °FLight rain. Fog.No wind94%29.74 "Hg2 mi
9:30 PM79 °FLight rain. Fog.1 mph94%29.74 "Hg3 mi
9:00 PM79 °FFog.1 mph94%29.71 "Hg3 mi
8:30 PM79 °FFog.3 mph94%29.71 "Hg3 mi
8:00 PM79 °FFog.1 mph94%29.71 "Hg3 mi
7:30 PM81 °FFog.No wind89%29.68 "Hg3 mi
7:00 PM81 °FFog.1 mph89%29.68 "Hg2 mi
Weather by CustomWeather, © 2015

See weather overviewHow to use our weather pages